[ hide orbit diagram ]
For accurate long-term ephemerides, please instead use our Horizons system.This orbit viewer was implemented using two-body methods, and hence should not be used for determining accurate long-term trajectories (over several years or decades) or planetary encounter circumstances.
Orbital Elements at Epoch 2459000.5 (2020-May-31.0) TDB
Reference: JPL 17 (heliocentric ecliptic J2000)
Element | Value | Uncertainty (1-sigma) | Units |
e | .1684475945770954 | 3.5896e-08 | |
a | 2.357990613114104 | 1.0938e-08 | au |
q | 1.960792766299663 | 8.7295e-08 | au |
i | 1.571013563387468 | 4.7999e-06 | deg |
node | 243.9416260001126 | 0.00017009 | deg |
peri | 62.57829227100665 | 0.00017093 | deg |
M | 323.0367063773559 | 1.5919e-05 | deg |
tp | 2459136.293723237553 (2020-Oct-13.79372324) | 5.86e-05 | TDB |
period | 1322.548278965355 3.62 | 9.2025e-06 2.52e-08 | d yr |
n | .272201783273751 | 1.894e-09 | deg/d |
Q | 2.755188459928545 | 1.2781e-08 | au |
|
| | Orbit Determination Parameters
Additional Information
|
[ show covariance matrix ]
Physical Parameter Table
Parameter |
Symbol |
Value |
Units |
Sigma |
Reference |
Notes |
absolute magnitude |
H |
16.6 |
|
n/a |
MPO427057 |
|
|
173319 (1999 VX69) Discovered 1999-Nov-04 by LINEAR at Socorro |
Reference: 20080122/Numbers.arc | Last Updated: 2008-01-28 |
|
[ show close-approach data ]
|